Location: Centerville
(32.8776°N, 96.6203°W)
Time: 23:08:10
(UTC+00:00)

Meteor 1-21 - Pass Details

Date: 17 June 2021
Orbit: 846 x 886 km, 81.2° (Epoch: 01 August)

Event Time Altitude Azimuth Distance (km) Brightness Sun altitude
Exits shadow 02:52:00 - 184° (S) 3,334 7.0 -13.8°
Reaches altitude 10° 02:54:10 10° 184° (S) 2,497 6.3 -14.2°
Maximum altitude 02:59:50 84° 97° (E) 867 4.2 -15.1°
Drops below altitude 10° 03:05:29 10° 9° (N) 2,487 7.1 -16.0°
Sets 03:07:54 0° 9° (N) 3,422 7.9 -16.3°
